Fort Hood, TX

4:18 AM CDT on June 23, 2017 (GMT -0500)
Killeen-Fort Hood Regional

Weather History for KGRK - September, 2013

Change the Weather History Date:

Sunday, September 15, 2013

  Actual Average Record
Temperature  
Mean Temperature 83 °F -  
Max Temperature 91 °F 87 °F 100 °F (1997)
Min Temperature 75 °F 67 °F 60 °F (2003)
Cooling Degree Days 18    
Growing Degree Days 33 (Base 50)    
Moisture  
Dew Point 67 °F    
Average Humidity 60    
Maximum Humidity 83    
Minimum Humidity 41    
Precipitation  
Precipitation 0.00 in - - ()
Sea Level Pressure  
Sea Level Pressure 29.98 in    
Wind  
Wind Speed 6 mph (ESE)    
Max Wind Speed 12 mph    
Max Gust Speed -    
Visibility 7 miles    
Events      
Averages and records for this station are not official NWS values.
T = Trace of Precipitation, MM = Missing Value Source: NWS Daily Summary

Daily Weather History Graph

Daily Weather History Graph

Search for Another Location

Airport or City:

Trip Planner

Search our weather history database for the weather conditions in past years. The results will help you decide how hot, cold, wet, or windy it might be!

Date:

Astronomy

Sep. 15, 2013 Rise Set
Actual Time 7:15 AM CDT 7:36 PM CDT
Civil Twilight 6:51 AM CDT 8:00 PM CDT
Nautical Twilight 6:23 AM CDT 8:29 PM CDT
Astronomical Twilight 5:54 AM CDT 8:57 PM CDT
Moon 4:54 PM CDT (9/15) 3:08 AM CDT (9/15)
Length of Visible Light 13h 09m
Length of Day
12h 20m
Waxing Gibbous, 82% of the Moon is Illuminated
Sep 15
Waxing Gibbous
Sep 19
Full
Sep 26
Last Quarter
Oct 4
New
Oct 11
First Quarter

Hourly Weather History & Observations

Time (CDT) Temp. Heat Index Dew Point Humidity Pressure Visibility Wind Dir Wind Speed Gust Speed Precip Events Conditions
12:55 AM 80.6 °F 83.2 °F 68.0 °F 65% 29.93 in 7.0 mi South 9.2 mph - N/A   Partly Cloudy
1:55 AM 78.8 °F - 66.2 °F 65% 29.93 in 7.0 mi SSE 6.9 mph - N/A   Partly Cloudy
2:55 AM 78.8 °F - 68.0 °F 69% 29.93 in 7.0 mi SSE 6.9 mph - N/A   Partly Cloudy
3:55 AM 77.0 °F - 68.0 °F 74% 29.94 in 7.0 mi South 3.5 mph - N/A   Partly Cloudy
4:55 AM 77.0 °F - 68.0 °F 74% 29.93 in 7.0 mi Calm Calm - N/A   Partly Cloudy
5:55 AM 75.2 °F - 68.0 °F 78% 29.96 in 7.0 mi Calm Calm - N/A   Partly Cloudy
6:55 AM 75.2 °F - 69.8 °F 83% 29.97 in 7.0 mi Calm Calm - N/A   Scattered Clouds
7:55 AM 75.2 °F - 69.8 °F 83% 29.99 in 7.0 mi Calm Calm - N/A   Scattered Clouds
8:55 AM 78.8 °F - 71.6 °F 78% 30.01 in 7.0 mi SE 5.8 mph - N/A   Scattered Clouds
9:55 AM 80.6 °F 84.6 °F 71.6 °F 74% 30.02 in 7.0 mi ESE 6.9 mph - N/A   Scattered Clouds
10:44 AM 80.6 °F 84.6 °F 71.6 °F 74% 30.05 in 7.0 mi SE 8.1 mph - N/A   Mostly Cloudy
10:55 AM 82.4 °F 87.2 °F 71.6 °F 70% 30.04 in 7.0 mi ESE 8.1 mph - N/A   Mostly Cloudy
11:45 AM 86.0 °F 89.4 °F 68.0 °F 55% 30.05 in 7.0 mi SE 9.2 mph - N/A   Mostly Cloudy
11:55 AM 86.0 °F 89.4 °F 68.0 °F 55% 30.03 in 7.0 mi SE 9.2 mph - N/A   Mostly Cloudy
12:55 PM 87.8 °F 91.4 °F 68.0 °F 52% 30.02 in 7.0 mi ESE 5.8 mph - N/A   Mostly Cloudy
1:55 PM 89.6 °F 92.2 °F 66.2 °F 46% 30.00 in 7.0 mi East 8.1 mph - N/A   Mostly Cloudy
2:55 PM 89.6 °F 91.1 °F 64.4 °F 43% 29.98 in 7.0 mi Variable 5.8 mph - N/A   Mostly Cloudy
3:55 PM 91.4 °F 93.2 °F 64.4 °F 41% 29.96 in 7.0 mi East 11.5 mph - N/A   Mostly Cloudy
4:55 PM 91.4 °F 93.2 °F 64.4 °F 41% 29.96 in 7.0 mi East 8.1 mph - N/A   Mostly Cloudy
5:55 PM 91.4 °F 93.2 °F 64.4 °F 41% 29.96 in 7.0 mi East 5.8 mph - N/A   Mostly Cloudy
6:55 PM 89.6 °F 91.1 °F 64.4 °F 43% 29.96 in 7.0 mi East 8.1 mph - N/A   Mostly Cloudy
7:55 PM 87.8 °F 89.4 °F 64.4 °F 46% 29.97 in 7.0 mi ESE 4.6 mph - N/A   Mostly Cloudy
8:55 PM 87.8 °F 90.4 °F 66.2 °F 49% 29.99 in 7.0 mi East 8.1 mph - N/A   Overcast
9:55 PM 84.2 °F 86.6 °F 66.2 °F 55% 30.00 in 7.0 mi East 9.2 mph - N/A   Overcast
10:55 PM 82.4 °F 84.6 °F 66.2 °F 58% 30.01 in 7.0 mi SE 9.2 mph - N/A   Overcast
11:55 PM 82.4 °F 84.6 °F 66.2 °F 58% 30.01 in 7.0 mi SE 6.9 mph - N/A   Mostly Cloudy